Temp
21 21 21 21 21 21 21 21 21 21 21 20 19 19 18 18 18 18 17 17 17 17 18 18 18 17 17 17 17 17 17 17 17 18 18 18 17 17 16 17 17 16 17
21 21 21 21 21 21 21 21 21 21 21 20 19 19 18 18 18 18 18 17 17 17 17 17 17 17 17 17 16 16 16 16 17 17 17 18 17 17 17 17 17 17 17
21 20 20 21 20 20 20 21 21 20 20 19 19 19 18 18 18 18 18 17 17 17 17 17 17 17 17 16 16 16 17 17 17 17 18 18 18 17 17 17 17 17 17
20 20 20 21 20 20 20 20 20 20 19 19 19 19 18 18 18 18 18 17 17 17 17 17 17 16 16 16 17 17 17 18 18 18 18 17 17 17 17 17 17 17 17
20 20 20 21 20 20 20 20 20 20 20 20 19 19 19 18 18 18 17 17 16 16 16 16 16 16 16 16 17 17 17 17 17 17 17 18 18 17 17 17 17 17 16
20 20 20 20 20 20 20 20 20 20 20 20 20 20 19 18 18 18 18 18 17 16 16 16 16 16 17 17 17 17 17 17 17 17 17 17 17 18 17 17 17 17 17
20 20 20 20 20 20 20 20 20 20 20 19 20 19 18 18 18 18 18 18 18 16 16 16 16 17 17 17 17 17 17 17 17 17 17 17 17 17 17 17 16 16 15
20 20 20 20 20 20 20 20 20 19 19 20 19 19 18 17 18 18 18 18 18 16 16 16 17 17 17 17 17 17 17 17 17 17 17 17 16 16 15 15 15 15 15
20 20 20 20 20 20 20 20 20 19 19 19 19 18 18 17 18 18 18 18 18 17 17 17 17 17 17 17 17 17 17 17 17 17 17 16 16 15 15 14 14 14 14
19 20 20 20 20 19 19 19 19 19 19 19 19 18 18 18 17 18 17 17 17 17 17 17 17 17 17 17 18 17 17 17 17 17 17 16 15 15 15 14 14 14 13
19 19 20 20 19 19 19 19 19 19 19 19 18 18 18 17 17 17 17 17 17 17 18 17 17 17 17 17 17 17 17 17 17 17 16 16 15 15 14 14 14 13 13
19 19 19 19 19 19 19 19 19 19 19 19 18 18 18 17 17 17 17 17 17 17 17 17 17 17 17 17 17 17 17 17 17 17 16 16 15 15 14 14 13 13 13
19 19 19 18 19 19 18 18 18 19 19 18 18 18 18 18 17 17 16 16 17 17 17 17 17 17 17 17 17 17 17 17 17 17 17 16 15 15 14 13 13 13 13
19 19 19 18 18 19 19 18 19 19 19 18 18 18 18 18 17 17 17 17 17 17 17 17 17 18 17 17 17 17 17 17 17 17 17 16 15 15 14 13 13 13 12
18 18 19 18 18 18 18 18 18 19 19 18 18 18 17 17 17 17 17 17 17 17 17 17 17 17 18 17 17 17 17 17 17 17 17 16 16 15 15 14 13 13 12
18 18 18 18 18 18 19 18 18 19 19 18 18 18 18 18 17 17 17 17 17 17 17 17 17 17 17 17 17 17 17 17 17 17 17 16 16 15 15 14 14 13 13
19 19 18 18 17 18 19 18 18 19 19 18 18 18 18 18 18 18 18 17 17 17 16 16 16 16 16 17 17 17 17 17 17 17 17 17 16 16 15 15 14 14 13
22 20 20 19 19 19 19 18 18 18 18 18 18 18 18 18 18 18 18 18 18 17 16 16 16 16 16 16 17 17 17 17 17 17 17 17 17 16 16 15 15 14 13
22 21 19 19 19 19 18 19 19 19 19 19 18 18 18 18 18 18 18 18 18 17 17 17 16 16 16 16 17 17 17 17 17 17 17 17 17 16 16 16 15 14 14
21 22 19 19 20 19 19 18 18 18 19 19 19 19 19 19 18 18 18 18 18 17 17 17 17 16 16 16 16 17 17 17 17 17 17 17 16 16 16 16 15 15 14
20 19 18 18 19 19 18 18 18 17 18 19 19 19 19 19 19 18 18 18 18 18 18 17 17 17 16 16 16 16 17 17 17 17 17 16 16 16 15 15 15 14 14
20 20 19 18 18 18 18 17 17 17 18 19 20 20 19 19 19 19 19 19 19 18 18 17 17 17 16 16 16 14 12 15 17 17 16 16 16 16 15 15 15 14 14
18 20 19 19 18 19 19 18 17 18 18 19 19 19 20 20 20 20 19 19 19 19 18 18 18 17 17 16 16 16 11 12 12 16 17 18 18 17 17 16 16 15 15
21 19 19 19 18 18 18 18 18 19 18 19 19 20 20 19 19 19 19 19 19 18 18 18 18 17 17 16 15 15 16 16 14 13 15 16 16 16 15 14 14 14 13
19 19 19 18 18 18 18 18 18 18 19 19 19 19 19 18 19 18 18 18 18 17 17 18 17 17 16 16 16 15 14 14 13 13 14 14 14 15 15 15 15 14 13
15 17 18 17 17 17 17 17 17 18 18 18 17 17 17 18 17 17 17 17 17 17 17 17 17 16 16 16 15 15 15 14 12 11 11 13 12 13 13 13 12 13 12
Height
789 794 799 802 804 808 809 812 814 816 818 820 822 824 826 828 829 831 832 833 834 836 837 839 840 841 843 843 844 845 847 848 848 849 849 851 852 852 852 851 851 851 852
785 792 797 802 805 808 810 813 815 817 820 822 824 826 828 830 831 833 835 836 837 837 840 841 842 844 845 846 847 847 848 850 850 851 852 854 854 854 854 854 853 853 853
787 792 797 801 805 808 810 813 816 818 821 824 825 828 831 832 834 836 837 838 839 840 841 844 844 846 847 848 850 850 850 852 853 853 854 856 856 856 856 856 855 855 855
787 792 797 801 805 808 812 814 818 820 823 825 827 829 832 834 836 837 838 840 841 843 843 845 847 849 850 851 852 852 853 854 855 855 856 858 858 858 859 859 859 858 858
787 793 796 801 805 809 812 816 818 821 824 827 828 831 833 835 838 838 841 841 842 844 846 847 849 851 852 852 854 855 856 856 857 858 860 861 861 861 862 861 861 861 861
788 794 798 802 806 810 813 816 819 822 825 827 830 831 834 836 838 840 842 842 844 846 847 849 851 853 854 855 856 857 858 859 859 860 861 863 864 864 864 864 864 864 864
790 796 801 804 807 811 814 817 820 823 826 829 831 832 835 837 839 840 842 844 846 848 850 851 854 855 856 857 858 859 860 861 862 863 864 865 866 866 867 867 867 867 866
790 797 801 806 809 812 816 819 821 824 827 829 831 833 835 838 840 841 844 846 848 850 852 853 856 857 858 859 860 862 863 864 864 865 866 866 867 867 868 867 868 868 868
791 797 802 806 810 813 816 819 822 825 828 831 832 833 835 838 840 843 846 848 850 852 854 856 858 859 860 862 863 864 865 865 866 867 868 868 868 869 869 868 868 869 869
793 798 802 807 810 813 816 819 823 826 829 831 832 834 837 839 841 844 847 850 852 853 855 857 859 860 862 864 864 865 866 866 867 868 869 869 870 870 870 869 869 869 870
794 797 801 806 811 814 817 820 823 826 829 831 833 835 838 840 842 845 847 850 852 854 856 859 860 861 863 864 866 867 867 868 869 870 870 870 871 871 871 870 870 870 870
793 797 800 804 809 814 817 820 823 826 829 831 833 835 837 840 843 845 848 851 853 855 857 859 861 862 863 865 866 867 868 869 870 871 871 871 872 872 872 871 871 872 872
794 797 800 803 807 811 816 820 823 826 829 831 833 836 837 840 842 845 848 851 853 855 857 859 861 862 863 864 866 868 869 870 871 871 872 872 873 873 873 873 873 873 873
795 798 800 803 806 809 814 819 822 825 828 830 833 836 837 839 841 844 847 850 853 856 858 859 860 862 863 864 865 867 869 870 870 871 872 873 874 874 874 874 874 874 875
793 796 799 802 805 808 812 816 821 824 827 830 832 834 837 840 841 844 846 849 852 855 857 859 860 861 863 864 865 866 868 869 870 871 872 873 873 874 875 875 875 875 876
790 794 797 801 804 807 810 813 818 822 825 828 831 833 836 839 841 843 846 848 851 854 856 857 858 860 861 862 864 865 866 867 868 869 870 871 872 873 874 875 875 876 877
785 788 794 798 803 806 809 813 816 820 823 826 829 832 834 837 839 842 844 846 849 852 855 856 857 858 860 861 862 863 864 865 866 867 868 869 870 871 872 873 874 876 876
787 786 789 792 798 804 808 811 815 818 821 824 826 830 832 835 837 840 842 844 848 850 852 854 855 856 858 859 860 861 862 863 864 865 866 867 868 869 869 871 872 873 875
782 787 788 791 795 800 805 809 812 815 818 821 824 827 830 832 835 837 839 842 846 848 849 851 853 855 856 857 858 859 860 861 861 862 862 864 865 866 867 869 869 871 872
778 783 785 790 792 798 803 807 810 812 815 818 821 824 827 830 832 835 836 839 842 845 846 848 850 852 854 856 856 856 856 857 857 858 859 860 861 862 863 865 866 867 869
778 781 782 785 788 794 799 803 807 808 812 815 817 820 823 826 829 831 834 836 838 841 843 845 848 849 851 853 855 854 853 853 853 853 855 855 856 857 859 860 863 864 865
774 778 782 783 785 790 795 799 802 805 807 811 814 816 819 822 825 827 829 832 834 837 839 842 844 845 847 850 851 853 853 850 848 848 850 851 852 853 854 857 858 859 860
774 775 779 782 785 788 791 796 797 802 805 807 810 813 814 818 821 823 825 828 830 833 834 836 839 841 842 845 846 850 853 852 848 845 845 846 847 848 849 850 851 852 854
768 773 776 779 783 787 790 792 793 797 799 803 805 809 812 815 817 819 822 824 825 827 829 831 834 837 839 840 843 843 843 843 845 845 842 842 843 843 844 846 848 849 850
765 768 773 776 779 782 785 789 793 795 798 799 802 805 808 811 814 816 817 819 820 823 824 827 829 831 833 835 836 838 839 839 840 841 839 839 839 840 841 842 843 844 845
764 765 769 772 775 778 782 786 790 793 794 798 800 801 804 806 809 810 812 813 815 817 818 821 823 825 827 828 830 832 833 833 833 835 836 835 836 838 838 839 840 840 841
Wind_Speed
22 30 29 27 27 26 25 23 22 21 20 20 19 19 17 17 18 17 17 16 16 15 15 14 14 15 16 16 17 17 16 15 15 15 17 18 14 13 12 11 13 12 11
33 33 31 29 28 26 25 23 22 21 19 19 19 18 17 17 17 16 16 16 16 16 15 15 16 17 18 18 17 17 17 17 18 17 15 12 11 11 11 13 13 11 11
39 34 32 30 28 26 24 22 21 20 19 18 18 17 16 16 15 16 16 15 15 16 16 16 17 17 18 17 17 16 16 16 15 14 12 11 12 12 12 12 12 11 13
37 34 33 30 27 26 23 22 20 19 18 17 16 17 16 16 15 15 15 14 15 15 16 17 18 17 15 14 14 15 16 16 15 15 16 15 10 9 12 12 16 17 20
36 35 34 30 27 25 23 23 20 19 17 16 16 17 16 16 14 16 15 15 15 15 17 18 17 16 15 15 14 14 14 15 14 16 18 15 16 16 12 12 14 14 14
36 33 32 29 28 26 24 22 20 19 17 16 14 12 14 14 14 16 14 13 14 16 17 17 16 15 15 14 13 13 15 15 15 17 16 14 16 13 13 11 11 10 10
32 31 29 29 27 25 24 22 20 19 18 16 13 12 13 14 14 16 13 13 13 15 16 16 15 14 14 14 14 14 17 16 17 15 13 10 9 9 8 7 7 7 7
33 30 28 27 26 25 23 22 21 20 16 14 14 13 13 15 15 15 14 13 13 15 16 15 14 13 13 12 13 14 14 12 10 8 7 8 10 9 8 9 9 9 9
32 30 27 27 26 24 23 22 22 18 17 15 14 12 13 15 15 16 15 13 12 13 14 14 13 11 10 10 9 10 9 8 8 7 7 8 8 8 8 8 8 8 9
29 30 28 26 25 25 24 23 20 18 17 15 13 11 13 12 16 17 16 13 12 12 12 12 12 11 8 7 7 8 7 6 6 5 6 6 6 6 6 7 7 8 8
28 29 28 27 25 24 23 22 19 17 16 14 13 12 15 14 16 17 16 14 12 11 10 10 10 10 9 7 7 7 6 4 3 3 4 5 4 4 5 5 6 6 7
26 29 29 27 25 24 23 22 20 17 16 14 14 15 16 15 14 16 16 14 12 10 9 9 9 10 10 9 7 6 4 4 2 1 2 2 2 2 3 3 4 5 5
23 24 27 26 27 26 25 22 19 17 16 14 15 17 18 18 15 16 16 14 12 10 9 9 9 10 9 9 8 6 4 4 5 3 1 0 1 1 2 1 2 4 4
25 23 26 26 28 25 24 24 21 19 17 16 16 18 18 18 17 18 18 16 13 11 10 9 9 10 10 8 8 8 7 5 6 6 5 3 2 2 2 2 1 2 3
24 25 30 29 29 27 26 27 24 22 19 17 17 18 17 17 17 17 16 15 14 14 12 10 10 9 10 10 10 9 9 8 8 9 9 7 5 5 4 3 2 1 1
24 23 27 29 29 27 26 28 27 24 22 19 18 18 19 18 17 16 15 15 15 15 13 12 11 10 10 11 11 10 9 10 10 11 11 10 9 7 7 4 4 3 2
28 25 28 31 28 26 26 25 28 26 24 22 21 19 18 18 19 17 16 16 16 15 14 14 13 12 12 13 14 13 12 12 13 13 13 14 12 11 10 7 6 6 5
23 28 27 28 30 28 27 26 26 26 26 24 23 21 20 18 18 19 18 17 15 16 16 15 15 14 14 14 14 14 14 14 14 15 15 16 15 14 13 12 9 8 8
23 23 29 30 32 32 30 29 27 26 26 24 24 23 22 21 20 20 19 18 17 16 17 15 15 15 15 14 13 14 15 17 18 17 17 18 19 18 16 15 14 11 12
23 26 27 30 30 31 30 29 28 25 26 24 24 25 23 23 23 22 21 19 20 19 18 18 17 16 16 15 15 17 18 19 19 20 20 21 20 20 19 18 17 16 14
19 24 29 30 31 31 31 31 29 29 27 26 25 24 24 23 24 25 24 22 21 22 20 19 19 18 18 16 14 16 20 22 23 24 23 23 23 22 21 21 20 19 18
23 23 25 24 27 31 33 31 26 27 28 27 25 26 26 26 25 25 26 25 24 25 24 23 22 22 21 19 9 4 3 6 13 21 23 24 24 22 22 21 22 22 22
20 23 26 30 29 28 28 29 21 19 23 25 27 27 27 25 26 26 26 27 25 26 27 26 24 24 24 18 21 10 1 4 2 4 6 8 13 17 19 21 23 23 24
18 22 25 26 28 31 29 27 28 26 20 26 27 25 26 27 26 25 26 26 28 28 27 27 25 26 26 24 18 25 25 12 4 3 7 9 10 14 17 21 22 21 21
16 19 22 22 22 26 29 31 30 28 25 24 24 25 25 24 24 24 24 26 27 27 26 27 27 27 26 27 26 17 21 27 22 10 6 9 11 14 13 12 15 19 20
10 14 19 21 21 21 22 26 26 29 27 23 20 19 19 22 21 23 23 25 26 28 28 28 28 28 27 28 27 27 24 12 9 13 8 12 10 13 16 16 16 15 17
Wind_Direction
171 169 169 164 159 156 150 147 143 138 134 128 121 116 113 108 107 104 100 99 101 102 106 103 104 102 99 98 99 101 104 104 101 97 104 93 90 82 77 67 76 78 78
164 170 169 167 163 160 155 152 146 143 138 130 125 120 117 112 110 109 105 102 102 102 103 103 103 104 100 99 98 99 103 108 110 106 102 99 82 79 79 76 73 77 78
164 169 168 167 166 164 159 155 150 147 140 135 129 125 123 120 117 115 109 104 104 106 106 106 108 108 104 102 101 100 102 111 110 105 96 86 83 85 85 78 68 72 62
163 168 167 169 166 165 160 156 152 147 145 139 134 132 132 130 126 124 115 109 110 111 112 112 112 110 106 105 106 104 101 102 103 100 95 82 67 97 86 78 79 74 69
165 170 168 169 166 166 163 161 157 152 149 146 142 141 137 137 133 133 122 116 114 116 118 116 114 113 109 103 106 107 110 101 103 102 95 80 80 95 86 81 77 71 65
166 171 169 168 169 169 164 163 160 156 153 145 143 149 145 140 141 141 130 116 117 124 123 123 122 117 110 108 114 108 111 105 110 114 103 95 84 84 83 77 63 58 62
165 171 171 172 171 170 167 164 161 158 151 150 160 161 155 149 151 152 140 123 122 127 131 129 127 121 112 110 109 111 119 113 111 111 105 98 85 82 78 66 63 55 60
164 170 170 174 173 172 169 166 161 159 158 166 169 158 155 153 160 158 150 137 129 134 135 135 134 126 119 116 113 119 121 118 115 112 94 84 92 85 79 74 73 70 70
165 170 174 176 175 172 170 168 166 165 164 174 167 156 155 158 159 164 160 149 139 139 141 144 143 133 127 126 123 131 127 112 106 94 89 89 87 84 84 80 76 72 69
167 170 175 177 174 173 172 171 171 171 171 176 175 162 162 167 160 170 164 158 150 141 145 151 152 148 143 135 133 142 141 122 110 85 75 77 89 90 85 83 81 77 73
167 174 175 176 175 175 174 173 173 174 180 186 183 179 166 170 161 172 171 167 161 150 150 157 161 163 162 148 133 147 153 143 127 87 67 62 83 95 98 88 83 85 83
171 173 177 174 175 178 177 177 176 177 183 189 190 183 179 180 170 175 175 175 172 165 163 167 173 175 178 177 168 165 179 193 195 127 58 53 63 99 89 103 92 91 88
175 174 180 176 178 178 183 181 181 182 185 185 183 178 173 178 179 178 179 180 180 183 185 184 188 192 192 195 199 204 214 236 226 231 264 248 340 167 153 120 107 102 97
180 181 184 183 184 178 184 186 188 189 190 187 186 187 185 184 181 181 185 188 192 199 203 205 204 207 207 212 213 219 234 246 233 252 260 262 272 287 241 169 125 119 112
183 183 189 190 190 183 187 190 193 195 196 195 190 192 195 193 186 186 189 196 201 206 212 219 220 221 221 223 230 235 240 248 261 269 256 259 259 276 285 232 202 173 153
192 189 188 195 196 191 186 196 196 199 202 199 197 196 201 207 204 200 200 206 212 219 226 229 231 233 233 231 232 236 246 252 263 278 259 259 260 265 279 267 235 228 225
200 196 193 195 199 196 193 196 203 204 208 207 206 205 206 211 214 216 216 218 223 226 231 234 235 238 241 239 238 240 255 267 266 270 263 259 259 261 268 268 246 239 234
211 200 197 195 196 201 199 202 206 211 214 216 213 213 216 218 217 218 222 225 227 231 235 240 239 243 245 244 243 244 257 268 271 272 260 252 255 261 265 266 260 247 236
207 215 202 200 201 205 209 214 216 219 220 222 223 222 222 225 224 224 227 232 234 236 237 242 240 243 243 245 249 254 261 269 269 268 261 254 254 257 262 266 262 257 248
210 216 208 202 205 208 212 216 220 222 224 226 228 227 228 228 230 231 233 237 237 238 238 238 239 241 245 253 261 265 269 275 264 263 263 260 259 258 258 258 259 258 252
220 214 214 206 204 206 210 212 218 220 222 225 227 228 231 232 233 234 235 237 237 237 242 241 242 242 246 249 262 272 271 269 264 264 265 263 262 262 260 257 256 257 257
212 215 220 217 210 210 215 215 215 222 224 227 229 230 233 236 238 240 239 237 239 239 242 242 243 243 246 246 232 232 311 297 260 260 261 262 265 267 264 262 260 258 257
220 220 221 221 219 215 216 218 213 225 224 227 234 233 231 233 237 239 240 240 242 242 244 244 244 242 245 245 235 215 136 233 315 247 243 253 265 269 271 267 263 259 256
241 228 224 222 221 221 218 214 210 214 211 228 234 236 235 232 237 238 242 243 245 246 247 251 250 249 245 246 238 234 239 241 202 285 258 257 248 258 264 264 264 265 261
237 229 221 222 220 220 221 221 220 222 227 233 238 242 244 243 242 242 243 245 248 248 252 254 254 250 249 246 248 244 241 245 248 237 265 251 261 264 271 273 272 269 264
217 213 211 213 215 212 213 220 227 229 235 243 245 245 245 248 244 246 245 247 249 251 251 252 253 253 253 253 252 251 243 232 222 222 237 251 248 267 264 273 273 268 265